Location: Campbell
(41.0784°N, 80.5992°W)
Time: 07:36:28
(UTC+00:00)

Daily predictions for brighter satellites

Satellite Brightness Start Highest point End
(mag) Time Altitude Azimuth Time Altitude Azimuth Time Altitude Azimuth
Cosmos 1697 Rocket 4.1 22:45:32 10° SE 22:48:57 17° E 22:52:22 10° ENE
Cosmos 1340 4.0 22:47:09 10° NNE 22:49:57 19° ENE 22:52:43 10° ESE
FALCON 9 DEB 3.5 22:53:45 10° WSW 22:56:55 54° NW 23:00:06 10° NE
NOAA 11 4.2 22:54:21 10° SSE 22:59:41 59° ENE 23:05:01 10° N
FALCON 9 DEB 3.8 22:57:49 10° WSW 23:00:55 46° NNW 23:04:00 10° NE
COSMO-SKYMED 1 3.1 22:57:52 10° NNE 23:01:55 37° E 23:05:57 10° SSE
SAR-Lupe-1 4.4 22:58:57 10° NNE 23:02:24 42° E 23:05:48 10° S
H-2A R/B 3.7 22:59:26 10° N 23:03:13 35° WNW 23:06:57 10° SW
Cosmos 968 Rocket 4.5 23:00:26 10° N 23:04:46 26° ENE 23:09:02 10° ESE
Cosmos 1825 Rocket 3.8 23:06:44 10° N 23:11:10 77° W 23:15:33 10° S
Cosmos 1980 Rocket 3.8 23:09:22 10° ESE 23:11:49 13° E 23:12:55 12° E
Okean O Rocket 2.5 23:08:42 10° S 23:12:58 54° W 23:17:16 10° NNW
FALCON 9 DEB 4.1 23:10:12 10° WSW 23:13:17 39° NNW 23:16:21 10° NE
YAOGAN 1 3.7 23:10:25 10° ESE 23:13:48 23° ENE 23:17:12 10° NNE
Cosmos 1455 3.7 23:11:32 10° SE 23:13:59 17° E 23:16:25 10° NE
Cosmos 2297 Rocket 2.5 23:09:17 10° NNW 23:14:44 45° ENE 23:20:08 10° SE
Cosmos 292 Rocket 4.1 23:11:00 10° SSW 23:15:45 70° WNW 23:20:35 10° NNE
Cosmos 1302 Rocket 4.0 23:10:36 10° S 23:15:49 75° ESE 23:21:07 10° NNE
Lacrosse 5 4.1 23:14:36 10° NW 23:16:59 13° N 23:19:23 10° NNE
In-Cosmos 22 Rocket 4.4 23:12:26 10° N 23:17:36 45° ENE 23:22:50 10° SSE
FengYun 1-2 T 4.4 23:13:51 10° SSE 23:19:30 85° WSW 23:25:11 10° NNW
CZ-4B R/B 2.2 23:16:36 10° N 23:19:43 49° WNW 23:22:44 10° SSW
Cosmos 1726 Rocket 3.9 23:19:30 10° SSW 23:23:48 68° W 23:28:11 10° N
ATLAS 2AS CENTAUR R/B 4.4 23:18:59 10° NNW 23:23:50 18° NNE 23:27:36 12° ENE
FALCON 9 DEB 4.5 23:21:49 10° W 23:24:43 30° NNW 23:27:21 12° NNE
SKYMED 3 4.5 23:21:40 10° NNE 23:26:01 70° ESE 23:30:19 10° S
Cosmos 1486 Rocket 4.4 23:21:23 10° N 23:26:26 41° ENE 23:31:25 10° SE
Cosmos 1939 Rocket 2.7 23:22:41 10° SSE 23:26:38 65° ENE 23:30:32 10° N
Aureole 3 2.5 23:23:25 10° S 23:26:40 79° E 23:29:39 10° N
USA 307 4.4 23:24:10 10° NNW 23:27:33 22° NNE 23:29:25 17° NE
S3M 4.3 23:21:59 10° SSE 23:27:36 40° E 23:33:16 10° NNE
Aureole 3 Rocket 3.0 23:25:55 10° S 23:29:40 79° E 23:34:49 10° N
Cosmos 2228 4.4 23:25:54 10° SSW 23:29:54 41° WNW 23:33:58 10° N
Cosmos 44 Rocket 4.4 23:26:58 10° SSE 23:30:35 22° ESE 23:31:48 20° E
Cosmos 1689 Rocket 1.8 23:27:43 10° NNE 23:30:36 79° ESE 23:33:29 10° S
USA 308 4.4 23:28:59 10° NNW 23:32:27 23° NNE 23:34:05 19° NE
CZ-4 R/B 4.4 23:29:13 10° SSE 23:33:18 60° ENE 23:37:25 10° N
Milstar 3 4.0 23:27:47 10° SW 23:33:48 29° S 23:39:02 12° ESE
Helios 1A Rocket 3.0 23:31:08 10° SSE 23:35:09 54° ENE 23:39:10 10° N
CZ-2C R/B 3.6 23:29:51 10° SE 23:35:18 44° ENE 23:40:38 10° N
Cosmos 1417 Rocket 4.5 23:32:20 10° S 23:38:28 63° E 23:44:42 10° NNE
Meteor 2-8 Rocket 4.4 23:35:22 10° S 23:41:28 90° W 23:47:38 10° N
Timation 2 Rocket 4.4 23:36:13 10° NNW 23:42:51 73° WSW 23:49:39 10° SSE
Cosmos 1400 Rocket 3.4 23:41:11 10° SSW 23:45:15 60° WNW 23:49:18 10° N
Cosmos 2219 3.2 23:39:43 10° NNW 23:45:31 85° ENE 23:51:17 10° SSE
Meteor 2-10 Rocket 3.5 23:40:36 10° S 23:45:50 58° E 23:50:55 10° NNE
Okean-O 2.5 23:42:31 10° SSE 23:46:54 66° ENE 23:51:18 10° N
SKYMED 2 4.0 23:45:44 10° N 23:50:02 62° WNW 23:54:18 10° SSW
CZ-4 R/B 1.2 23:47:18 10° SSE 23:51:10 66° ENE 23:55:00 10° N
Cosmos 1892 2.6 23:48:54 10° N 23:52:48 76° E 23:56:40 10° SSE
Cosmos 2082 4.0 23:48:32 10° NNW 23:54:00 43° ENE 23:56:35 27° ESE
Cosmos 1408 2.7 23:50:44 10° N 23:54:18 48° E 23:54:58 42° ESE
Cosmos 1992 Rocket 3.9 23:49:26 10° S 23:54:34 66° ESE 23:59:44 10° NNE
PSLV R/B 4.3 23:50:55 10° N 23:55:04 66° WNW 23:59:09 10° SSW
